TimePST,TemperatureF,Dew PointF,Humidity,Sea Level PressureIn,VisibilityMPH,Wind Direction,Wind SpeedMPH,Gust SpeedMPH,PrecipitationIn,Events,Conditions,WindDirDegrees,DateUTC
12:00 AM,42.1,40.5,94,29.97,-9999.0,North,36.8,-,0.02,,Unknown,0,2013-01-25 08:00:00
1:00 AM,42.6,41.2,95,29.98,-9999.0,North,34.5,-,N/A,,Unknown,0,2013-01-25 09:00:00
2:00 AM,42.4,41.0,95,29.98,-9999.0,North,32.2,-,N/A,,Unknown,0,2013-01-25 10:00:00
3:00 AM,45.1,42.6,91,29.99,-9999.0,North,34.5,-,N/A,,Unknown,0,2013-01-25 11:00:00
4:00 AM,46,43,84,29.97,,Calm,Calm,,,,,300,2013-01-25 12:00:00
4:00 AM,45.5,42.6,90,29.97,-9999.0,North,34.5,-,N/A,,Unknown,0,2013-01-25 12:00:00
5:00 AM,45.1,42.1,89,29.99,-9999.0,North,33.4,-,N/A,,Unknown,0,2013-01-25 13:00:00
6:00 AM,45.5,42.1,88,29.99,-9999.0,North,34.5,-,N/A,,Unknown,0,2013-01-25 14:00:00
7:00 AM,45.5,41.0,84,30.01,-9999.0,North,35.7,-,N/A,,Unknown,0,2013-01-25 15:00:00
8:00 AM,43.3,41.4,93,30.02,-9999.0,North,9.2,-,N/A,,Unknown,0,2013-01-25 16:00:00
9:00 AM,43.3,41.4,93,30.02,-9999.0,North,9.2,-,N/A,,Unknown,0,2013-01-25 17:00:00
10:00 AM,44,42,88,30.04,,Calm,Calm,,,,,80,2013-01-25 18:00:00
10:00 AM,44.1,41.5,91,30.04,-9999.0,North,9.2,-,N/A,,Unknown,0,2013-01-25 18:00:00
11:00 AM,45.5,41.2,85,30.03,-9999.0,North,11.5,-,N/A,,Unknown,0,2013-01-25 19:00:00
12:00 PM,46.0,41.7,85,30.01,-9999.0,North,12.7,-,N/A,,Unknown,0,2013-01-25 20:00:00
1:00 PM,45.5,41.5,86,29.98,-9999.0,North,11.5,-,N/A,,Unknown,0,2013-01-25 21:00:00
2:00 PM,46.4,40.1,79,29.97,-9999.0,North,10.4,-,N/A,,Unknown,0,2013-01-25 22:00:00
3:00 PM,46.8,39.4,75,29.96,-9999.0,North,11.5,-,N/A,,Unknown,0,2013-01-25 23:00:00
4:00 PM,46,39,68,29.94,,Calm,Calm,,,,,100,2013-01-26 00:00:00
4:00 PM,46.4,38.8,75,29.94,-9999.0,North,11.5,-,N/A,,Unknown,0,2013-01-26 00:00:00
5:00 PM,45.0,41.4,87,29.93,-9999.0,North,10.4,-,N/A,,Unknown,0,2013-01-26 01:00:00
6:00 PM,43.7,40.3,88,29.91,-9999.0,North,10.4,-,N/A,,Unknown,0,2013-01-26 02:00:00
7:00 PM,43.5,40.6,90,29.91,-9999.0,North,10.4,-,N/A,,Unknown,0,2013-01-26 03:00:00
8:00 PM,43.0,38.7,85,29.90,-9999.0,North,6.9,-,N/A,,Unknown,0,2013-01-26 04:00:00
9:00 PM,45.0,38.5,78,29.88,-9999.0,North,6.9,-,N/A,,Unknown,0,2013-01-26 05:00:00
10:00 PM,46,38,65,29.87,,Calm,Calm,,,,,80,2013-01-26 06:00:00
10:00 PM,45.5,37.9,75,29.87,-9999.0,North,9.2,-,N/A,,Unknown,0,2013-01-26 06:00:00
11:00 PM,43.7,37.9,80,29.87,-9999.0,North,9.2,-,N/A,,Unknown,0,2013-01-26 07:00:00